Location: Clanezzo
(45.7500°N, 9.6000°E)
Time: 17:17:01
(UTC+00:00)

EO-79 - Pass Details

Date: 02 July 2022
Orbit: 588 x 603 km, 98.0° (Epoch: 18 August)

Event Time Altitude Azimuth Distance (km) Brightness Sun altitude
Rises 01:06:24 0° 13° (NNE) 2,857 ? -17.5°
Reaches altitude 10° 01:08:34 10° 15° (NNE) 1,952 ? -17.3°
Maximum altitude 01:12:49 83° 103° (ESE) 613 ? -17.0°
Enters shadow 01:14:44 32° 189° (S) 1,039 ? -16.9°
